Weather History for Hibbing, MN

Change the Weather History Date:

Tuesday, August 6, 2013

  Actual Average Record
Temperature  
Mean Temperature 58 °F -  
Max Temperature 71 °F 76 °F 91 °F (2001)
Min Temperature 46 °F 51 °F 37 °F (1997)
Degree Days  
Heating Degree Days 8    
Growing Degree Days 8 (Base 50)    
Moisture  
Dew Point 54 °F    
Average Humidity 89    
Maximum Humidity 100    
Minimum Humidity 63    
Precipitation  
Precipitation 0.05 in - - ()
Sea Level Pressure  
Sea Level Pressure 29.79 in    
Wind  
Wind Speed 2 mph (WNW)    
Max Wind Speed 9 mph    
Max Gust Speed -    
Visibility 5 miles    
Events Fog , Rain    
Averages and records for this station are not official NWS values.
T = Trace of Precipitation, MM = Missing Value Source: NWS Daily Summary

Daily Weather History Graph

Daily Weather History Graph

Search for Another Location

Airport:

Trip Planner

Search our weather history database for the weather conditions in past years. The results will help you decide how hot, cold, wet, or windy it might be!

Date:

Astronomy

Aug. 06, 2013 Rise Set
Actual Time 5:56 AM CDT 8:37 PM CDT
Civil Twilight 5:21 AM CDT 9:12 PM CDT
Nautical Twilight 4:36 AM CDT 9:56 PM CDT
Astronomical Twilight 3:44 AM CDT 10:47 PM CDT
Moon 5:52 AM CDT (8/6) 8:05 PM CDT (8/6)
Length of Visible Light 15h 50m
Length of Day
14h 41m
Waning Crescent, 0% of the Moon is Illuminated
Aug 6
Waning Crescent
Aug 6
New
Aug 14
First Quarter
Aug 20
Full
Aug 28
Last Quarter

Hourly Weather History & Observations

Time (CDT) Temp. Dew Point Humidity Pressure Visibility Wind Dir Wind Speed Gust Speed Precip Events Conditions
12:09 AM 57.2 °F 55.4 °F 94% 29.83 in 10.0 mi West 4.6 mph - N/A   Mostly Cloudy
12:53 AM 60.1 °F 57.0 °F 90% 29.82 in 10.0 mi West 4.6 mph - N/A   Overcast
1:02 AM 60.8 °F 57.2 °F 88% 29.81 in 10.0 mi West 3.5 mph - N/A   Mostly Cloudy
1:51 AM 55.4 °F 53.6 °F 94% 29.80 in 1.2 mi Calm Calm - N/A   Partly Cloudy
1:53 AM 55.0 °F 53.1 °F 93% 29.81 in 1.0 mi Calm Calm - N/A   Partly Cloudy
2:00 AM 53.6 °F 51.8 °F 94% 29.80 in 0.8 mi Calm Calm - N/A   Clear
2:08 AM 53.6 °F 53.6 °F 100% 29.80 in 1.8 mi Calm Calm - N/A   Clear
2:15 AM 51.8 °F 50.0 °F 94% 29.80 in 0.8 mi Calm Calm - N/A   Mist
2:30 AM 51.8 °F 51.8 °F 100% 29.79 in 0.2 mi Calm Calm - N/A Fog Fog
2:40 AM 51.8 °F 50.0 °F 94% 29.78 in 0.5 mi Calm Calm - N/A Fog Fog
2:48 AM 51.8 °F 50.0 °F 94% 29.78 in 0.2 mi Calm Calm - N/A Fog Fog
2:53 AM 51.1 °F 48.9 °F 92% 29.78 in 0.2 mi Calm Calm - N/A Fog Fog
3:17 AM 50.0 °F 48.2 °F 94% 29.79 in 0.5 mi NW 3.5 mph - N/A Fog Fog
3:36 AM 48.2 °F 48.2 °F 100% 29.81 in 1.2 mi West 4.6 mph - 0.01 in   Scattered Clouds
3:51 AM 50.0 °F 48.2 °F 94% 29.79 in 3.0 mi Calm Calm - 0.01 in   Partly Cloudy
3:53 AM 50.0 °F 48.9 °F 96% 29.80 in 6.0 mi Calm Calm - 0.01 in   Partly Cloudy
3:56 AM 50.0 °F 48.2 °F 94% 29.79 in 1.8 mi Calm Calm - N/A   Partly Cloudy
4:02 AM 48.2 °F 46.4 °F 93% 29.79 in 0.8 mi Calm Calm - N/A   Mist
4:10 AM 50.0 °F 48.2 °F 94% 29.78 in 1.2 mi Calm Calm - N/A   Scattered Clouds
4:14 AM 50.0 °F 48.2 °F 94% 29.79 in 0.8 mi Calm Calm - N/A   Mist
4:25 AM 48.2 °F 48.2 °F 100% 29.79 in 0.2 mi Calm Calm - N/A Fog Fog
4:37 AM 48.2 °F 46.4 °F 93% 29.78 in 0.5 mi Calm Calm - N/A Fog Fog
4:53 AM 48.0 °F 46.9 °F 96% 29.78 in 0.2 mi Calm Calm - N/A Fog Fog
5:29 AM 46.4 °F 46.4 °F 100% 29.77 in 0.5 mi Calm Calm - N/A Fog Fog
5:53 AM 48.0 °F 46.0 °F 93% 29.79 in 0.2 mi Calm Calm - N/A Fog Fog
6:37 AM 51.8 °F 48.2 °F 88% 29.79 in 0.5 mi SW 3.5 mph - N/A Fog Fog
6:46 AM 51.8 °F 50.0 °F 94% 29.79 in 0.2 mi Calm Calm - N/A Fog Fog
6:53 AM 53.1 °F 51.1 °F 93% 29.80 in 0.2 mi Calm Calm - N/A Fog Fog
7:53 AM 55.0 °F 54.0 °F 96% 29.80 in 0.2 mi Calm Calm - N/A Fog Fog
8:25 AM 57.2 °F 55.4 °F 94% 29.79 in 0.5 mi South 3.5 mph - N/A Fog Fog
8:53 AM 57.9 °F 57.0 °F 97% 29.79 in 1.0 mi Calm Calm - N/A   Overcast
9:01 AM 59.0 °F 57.2 °F 94% 29.78 in 4.0 mi Calm Calm - N/A   Mostly Cloudy
9:16 AM 60.8 °F 57.2 °F 88% 29.78 in 10.0 mi Calm Calm - N/A   Scattered Clouds
9:53 AM 64.0 °F 59.0 °F 84% 29.79 in 10.0 mi SSE 3.5 mph - N/A   Clear
10:53 AM 64.9 °F 59.0 °F 81% 29.79 in 10.0 mi SSE 3.5 mph - N/A   Mostly Cloudy
11:53 AM 66.9 °F 57.9 °F 73% 29.79 in 10.0 mi SW 5.8 mph - 0.00 in Rain Light Rain
12:53 PM 66.9 °F 55.9 °F 68% 29.78 in 10.0 mi SW 4.6 mph - N/A   Scattered Clouds
1:53 PM 68.0 °F 57.9 °F 70% 29.78 in 10.0 mi Calm Calm - 0.00 in Rain Light Rain
2:53 PM 69.1 °F 55.9 °F 63% 29.78 in 10.0 mi West 5.8 mph - 0.00 in   Overcast
3:53 PM 66.9 °F 59.0 °F 76% 29.78 in 10.0 mi Calm Calm - 0.00 in   Overcast
4:53 PM 69.1 °F 57.9 °F 68% 29.76 in 10.0 mi Calm Calm - N/A   Scattered Clouds
5:53 PM 69.1 °F 57.9 °F 68% 29.77 in 10.0 mi WNW 3.5 mph - N/A   Overcast
6:53 PM 64.9 °F 60.1 °F 84% 29.76 in 8.0 mi Calm Calm - 0.04 in Rain Light Rain
7:53 PM 64.9 °F 61.0 °F 87% 29.78 in 10.0 mi North 3.5 mph - 0.00 in   Scattered Clouds
8:53 PM 63.0 °F 60.1 °F 90% 29.78 in 10.0 mi Calm Calm - N/A   Overcast
9:40 PM 62.6 °F 59.0 °F 88% 29.78 in 10.0 mi North 4.6 mph - N/A   Overcast
9:50 PM 62.6 °F 59.0 °F 88% 29.78 in 10.0 mi NNW 6.9 mph - N/A   Overcast
9:53 PM 62.1 °F 59.0 °F 90% 29.79 in 10.0 mi NNW 6.9 mph - N/A   Overcast
10:53 PM 61.0 °F 57.9 °F 90% 29.79 in 10.0 mi NNW 8.1 mph - N/A   Overcast
11:15 PM 62.6 °F 57.2 °F 82% 29.79 in 10.0 mi North 9.2 mph - N/A   Overcast
11:53 PM 61.0 °F 57.0 °F 87% 29.80 in 10.0 mi North 8.1 mph - N/A   Overcast